Ord, NE

6:19 AM CST on November 22, 2017 (GMT -0600)
Sharp

Weather History for KODX - October, 2011

Change the Weather History Date:

Friday, October 21, 2011

  Actual Average Record
Temperature  
Mean Temperature 51 °F 48 °F  
Max Temperature 74 °F 60 °F 84 °F (2003)
Min Temperature 27 °F 35 °F 26 °F (2013)
Degree Days  
Heating Degree Days 14 17  
Month to date heating degree days 223 287  
Since 1 July heating degree days 430 424  
Cooling Degree Days 0 0  
Month to date cooling degree days 15 6  
Year to date cooling degree days 922 844  
Moisture  
Dew Point 35 °F    
Average Humidity 59    
Maximum Humidity 92    
Minimum Humidity 25    
Precipitation  
Precipitation 0.00 in 0.06 in 1.29 in (2009)
Month to date precipitation 2.82 1.42  
Year to date precipitation 22.87 22.77  
Sea Level Pressure  
Sea Level Pressure 30.08 in    
Wind  
Wind Speed 3 mph (North)    
Max Wind Speed 13 mph    
Max Gust Speed 24 mph    
Visibility 10 miles    
Events      
T = Trace of Precipitation, MM = Missing Value Source: NWS Daily Summary

Daily Weather History Graph

Daily Weather History Graph

Search for Another Location

Airport or City:

Trip Planner

Search our weather history database for the weather conditions in past years. The results will help you decide how hot, cold, wet, or windy it might be!

Date:

Astronomy

Oct. 21, 2011 Rise Set
Actual Time 7:54 AM CDT 6:45 PM CDT
Civil Twilight 7:26 AM CDT 7:13 PM CDT
Nautical Twilight 6:53 AM CDT 7:46 PM CDT
Astronomical Twilight 6:21 AM CDT 8:18 PM CDT
Moon 1:41 AM CDT (10/21) 3:35 PM CDT (10/21)
Length of Visible Light 11h 47m
Length of Day
10h 51m
Waning Crescent, 33% of the Moon is Illuminated
Oct 21
Waning Crescent
Oct 26
New
Nov 2
First Quarter
Nov 10
Full
Nov 18
Last Quarter

Hourly Weather History & Observations

Time (CDT) Temp. Windchill Dew Point Humidity Pressure Visibility Wind Dir Wind Speed Gust Speed Precip Events Conditions
1:53 AM 35.1 °F 32.2 °F 30.0 °F 82% 30.06 in 10.0 mi East 3.5 mph - N/A   Clear
2:53 AM 35.1 °F 32.2 °F 30.9 °F 85% 30.06 in 10.0 mi ENE 3.5 mph - N/A   Clear
3:53 AM 33.8 °F - 30.2 °F 87% 30.02 in 10.0 mi Calm Calm - N/A   Clear
4:53 AM 30.0 °F - 28.0 °F 92% 30.06 in 10.0 mi Calm Calm - N/A   Clear
5:53 AM 30.0 °F - 27.0 °F 88% 30.07 in 10.0 mi Calm Calm - N/A   Clear
6:53 AM 30.0 °F 26.5 °F 27.0 °F 88% 30.08 in 10.0 mi NNW 3.5 mph - N/A   Clear
7:53 AM 28.9 °F - 26.1 °F 89% 30.11 in 10.0 mi Calm Calm - N/A   Clear
8:53 AM 33.1 °F - 30.0 °F 89% 30.13 in 10.0 mi Calm Calm - N/A   Clear
9:53 AM 44.6 °F - 37.4 °F 76% 30.08 in 10.0 mi Calm Calm - N/A   Clear
10:53 AM 55.9 °F - 39.0 °F 53% 30.10 in 10.0 mi NW 5.8 mph - N/A   Clear
11:53 AM 63.0 °F - 39.0 °F 41% 30.09 in 10.0 mi NNW 3.5 mph - N/A   Clear
12:53 PM 69.1 °F - 41.0 °F 36% 30.08 in 10.0 mi North 5.8 mph - N/A   Clear
1:53 PM 72.0 °F - 39.9 °F 31% 30.05 in 10.0 mi Variable 3.5 mph - N/A   Clear
2:53 PM 73.0 °F - 39.0 °F 29% 30.05 in 10.0 mi NNW 12.7 mph 18.4 mph N/A   Clear
3:53 PM 73.0 °F - 37.9 °F 28% 30.04 in 10.0 mi NW 5.8 mph - N/A   Clear
4:53 PM 73.0 °F - 36.0 °F 26% 30.05 in 10.0 mi North 8.1 mph - N/A   Clear
5:53 PM 66.9 °F - 39.0 °F 36% 30.06 in 10.0 mi NNE 4.6 mph - N/A   Clear
6:53 PM 60.1 °F - 41.0 °F 49% 30.09 in 10.0 mi North 4.6 mph - N/A   Clear
7:53 PM 50.0 °F - 39.9 °F 68% 30.11 in 10.0 mi Calm Calm - N/A   Clear
8:53 PM 53.1 °F - 41.0 °F 64% 30.12 in 10.0 mi NW 3.5 mph - N/A   Scattered Clouds
9:53 PM 54.0 °F - 39.9 °F 59% 30.11 in 10.0 mi Calm Calm - N/A   Clear
10:53 PM 46.9 °F - 37.9 °F 71% 30.12 in 10.0 mi Calm Calm - N/A   Clear
11:53 PM 51.1 °F - 37.9 °F 61% 30.12 in 10.0 mi Calm Calm - N/A   Clear